TimeEDT,TemperatureF,Dew PointF,Humidity,Sea Level PressureIn,VisibilityMPH,Wind Direction,Wind SpeedMPH,Gust SpeedMPH,PrecipitationIn,Events,Conditions,WindDirDegrees,DateUTC
12:53 AM,75.9,64.0,67,30.02,10.0,East,12.7,-,N/A,,Scattered Clouds,100,2013-04-29 04:53:00
1:53 AM,75.9,64.0,67,30.01,10.0,East,11.5,-,N/A,,Scattered Clouds,100,2013-04-29 05:53:00
2:20 AM,75.2,64.4,69,30.01,10.0,ESE,10.4,-,N/A,,Mostly Cloudy,120,2013-04-29 06:20:00
2:53 AM,75.9,64.0,67,29.99,10.0,East,10.4,-,N/A,,Mostly Cloudy,100,2013-04-29 06:53:00
3:00 AM,75.2,64.4,69,29.99,10.0,East,16.1,21.9,N/A,,Mostly Cloudy,100,2013-04-29 07:00:00
3:53 AM,75.0,64.9,71,29.99,10.0,ESE,9.2,-,N/A,,Scattered Clouds,110,2013-04-29 07:53:00
4:53 AM,75.9,64.9,69,29.99,10.0,ESE,11.5,-,N/A,,Mostly Cloudy,110,2013-04-29 08:53:00
5:53 AM,75.9,66.0,71,30.00,10.0,East,8.1,-,N/A,,Mostly Cloudy,100,2013-04-29 09:53:00
6:53 AM,75.9,66.0,71,30.01,10.0,ESE,9.2,-,N/A,,Mostly Cloudy,110,2013-04-29 10:53:00
7:53 AM,78.1,66.9,68,30.02,10.0,East,12.7,-,N/A,,Overcast,100,2013-04-29 11:53:00
8:53 AM,79.0,66.9,66,30.02,10.0,ESE,11.5,-,N/A,,Overcast,110,2013-04-29 12:53:00
9:47 AM,80.6,66.2,61,30.03,10.0,ESE,12.7,18.4,N/A,,Mostly Cloudy,120,2013-04-29 13:47:00
9:53 AM,80.1,68.0,67,30.04,10.0,ESE,12.7,-,N/A,,Mostly Cloudy,110,2013-04-29 13:53:00
10:10 AM,80.6,68.0,65,30.04,10.0,ESE,13.8,-,N/A,,Mostly Cloudy,110,2013-04-29 14:10:00
10:18 AM,80.6,68.0,65,30.04,10.0,ESE,16.1,-,N/A,,Mostly Cloudy,110,2013-04-29 14:18:00
10:53 AM,82.0,68.0,62,30.05,10.0,SE,15.0,-,N/A,,Mostly Cloudy,130,2013-04-29 14:53:00
11:53 AM,82.9,68.0,60,30.04,10.0,ESE,15.0,-,N/A,,Mostly Cloudy,120,2013-04-29 15:53:00
12:53 PM,81.0,69.1,67,30.02,10.0,ESE,17.3,23.0,N/A,,Overcast,110,2013-04-29 16:53:00
1:53 PM,80.1,69.1,69,30.01,10.0,ESE,16.1,-,N/A,,Mostly Cloudy,120,2013-04-29 17:53:00
2:53 PM,79.0,69.1,72,30.00,10.0,SE,13.8,19.6,N/A,,Overcast,130,2013-04-29 18:53:00
3:24 PM,78.8,69.8,74,29.99,10.0,ESE,15.0,-,N/A,,Overcast,120,2013-04-29 19:24:00
3:50 PM,78.8,69.8,74,29.99,10.0,ESE,9.2,-,0.00,Rain-Thunderstorm,Light Thunderstorms and Rain,120,2013-04-29 19:50:00
3:53 PM,78.1,69.1,74,30.00,10.0,SE,11.5,-,0.00,Thunderstorm,Thunderstorm,130,2013-04-29 19:53:00
4:46 PM,75.2,69.8,83,29.99,7.0,East,4.6,-,0.04,Rain-Thunderstorm,Light Thunderstorms and Rain,90,2013-04-29 20:46:00
4:53 PM,75.9,71.1,85,29.99,7.0,Calm,Calm,-,0.04,Rain-Thunderstorm,Light Thunderstorms and Rain,0,2013-04-29 20:53:00
5:34 PM,75.2,71.6,89,29.98,10.0,East,5.8,-,0.04,Thunderstorm,Thunderstorm,90,2013-04-29 21:34:00
5:53 PM,75.0,69.1,82,29.96,10.0,East,8.1,-,0.04,Rain,Light Rain,100,2013-04-29 21:53:00
6:53 PM,78.1,71.1,79,29.96,10.0,SSE,11.5,-,0.00,,Mostly Cloudy,150,2013-04-29 22:53:00
7:53 PM,77.0,70.0,79,29.96,10.0,SSE,8.1,-,N/A,,Scattered Clouds,150,2013-04-29 23:53:00
8:53 PM,77.0,70.0,79,29.98,10.0,ESE,8.1,-,N/A,,Scattered Clouds,110,2013-04-30 00:53:00
9:53 PM,77.0,71.1,82,29.98,10.0,ESE,6.9,-,N/A,,Mostly Cloudy,120,2013-04-30 01:53:00
9:56 PM,77.0,71.6,83,29.97,10.0,ESE,6.9,-,N/A,,Mostly Cloudy,120,2013-04-30 01:56:00
10:53 PM,77.0,71.1,82,29.98,10.0,ESE,8.1,-,N/A,,Mostly Cloudy,110,2013-04-30 02:53:00
11:53 PM,78.1,70.0,76,29.99,10.0,SE,8.1,-,N/A,,Mostly Cloudy,130,2013-04-30 03:53:00